This demonstration page uses our WeatherBlox Daily Observations layout. Learn more.

Left ArrowRight Arrow

39.08367, -84.50855

Hourly Observations for March 15, 2016

Temp ( °F °C ) Dew Point ( °F °C ) Humidity (%) Winds ( mph kmh ) Pressure ( in mb ) Visibility ( mi km ) Precip ( " mm )
12:49 am 00:49 Cloudy 59 15 55 13 88 88 N N/A 29.77 1008 10 16.0934 N/A
12:53 am 00:53 Mostly Cloudy 59 15 55 12.8 87 87 WSW 3 6 29.78 1008 10 16.0934 N/A
1:53 am 01:53 Cloudy 59 15 56 13.3 90 90 W 5 7 29.79 1009 10 16.0934 N/A
2:53 am 02:53 Cloudy 59 15 54 12.2 83 83 VRB 3 6 29.78 1009 10 16.0934 N/A
3:53 am 03:53 Cloudy 57 13.9 54 12.2 90 90 W 5 7 29.8 1009 10 16.0934 N/A
4:53 am 04:53 Cloudy 56 13.3 55 12.8 97 97 S 5 7 29.8 1009 10 16.0934 N/A
5:53 am 05:53 Cloudy 57 13.9 54 12.2 90 90 N N/A 29.8 1009 10 16.0934 N/A
6:53 am 06:53 Cloudy 56 13.3 54 12.2 93 93 WSW 3 6 29.82 1010 10 16.0934 N/A
7:53 am 07:53 Cloudy 56 13.3 55 12.8 97 97 SSW 6 9 29.83 1010 9 14.48406 N/A
8:53 am 08:53 Mostly Sunny 56 13.3 55 12.8 97 97 SSW 3 6 29.84 1011 7 11.26538 N/A
9:53 am 09:53 Mostly Cloudy 58 14.4 55 12.8 90 90 SSW 6 9 29.85 1011 10 16.0934 N/A
10:53 am 10:53 Mostly Sunny 61 16.1 54 12.2 78 78 N N/A 29.84 1011 10 16.0934 N/A
11:19 am 11:19 Mostly Cloudy 61 16.1 55 12.8 81 81 SSW 8 13 29.85 1011 10 16.0934 N/A
11:53 am 11:53 Mostly Cloudy 63 17.2 55 12.8 76 76 S 6 9 29.83 1010 10 16.0934 N/A
12:13 pm 12:13 Sunny 64 17.8 56 13.3 75 75 SSW 3 6 29.83 1010 10 16.0934 N/A
12:53 pm 12:53 Mostly Sunny 66 18.9 57 13.9 73 73 SSW 7 11 29.82 1010 10 16.0934 N/A
1:53 pm 13:53 Mostly Sunny 69 20.6 58 14.4 68 68 VRB 3 6 29.8 1009 10 16.0934 N/A
2:53 pm 14:53 Partly Cloudy 70 21.1 57 13.9 64 64 VRB 3 6 29.76 1008 10 16.0934 N/A
3:53 pm 15:53 Mostly Sunny 72 22.2 55 12.8 55 55 SSE 9 15 29.72 1007 10 16.0934 N/A
4:53 pm 16:53 Sunny 73 22.8 56 13.3 55 55 VRB 5 7 29.7 1006 10 16.0934 N/A
5:53 pm 17:53 Sunny 74 23.3 53 11.7 48 48 SE 10 17 29.66 1005 10 16.0934 N/A
6:53 pm 18:53 Sunny 73 22.8 53 11.7 50 50 SE 7 11 29.65 1004 10 16.0934 N/A
7:53 pm 19:53 Clear 71 21.7 52 11.1 51 51 ESE 7 11 29.65 1004 10 16.0934 N/A
8:53 pm 20:53 Clear 70 21.1 52 11.1 53 53 VRB 3 6 29.64 1004 10 16.0934 N/A
9:53 pm 21:53 Clear 69 20.6 51 10.6 53 53 VRB 5 7 29.62 1003 10 16.0934 N/A
10:53 pm 22:53 Clear 65 18.3 51 10.6 61 61 N N/A 29.62 1003 10 16.0934 N/A
11:53 pm 23:53 Clear 65 18.3 51 10.6 61 61 SW 3 6 29.59 1002 10 16.0934 N/A

Powered by AerisWeather